[TLELIST] Archives

 

[list_settings.list_name] Current TLEs

November 28th 2012 PDT

HST 1 20580U 90037B 12331.56925383 .00002133 00000-0 14209-3 0 1186 2 20580 028.4690 160.5058 0002835 347.7087 012.3425 15.03083745 39178 ISS (ZARYA) 1 25544U 98067A 12332.58096921 .00015694 00000-0 26377-3 0 7251 2 25544 051.6494 029.8489 0015758 335.7188 174.8451 15.51815547803397 CXO 1 25867U 99040B 12335.55319158 -.00000832 00000-0 00000+0 0 8184 2 25867 073.9517 352.6603 8705639 278.1271 359.5640 00.37800734 9781 ____________________________________________________________________ These 2-Line ...Continue Reading

[list_settings.list_name] Current TLEs

November 27th 2012 PDT

HST 1 20580U 90037B 12331.56925383 .00002133 00000-0 14209-3 0 1186 2 20580 028.4690 160.5058 0002835 347.7087 012.3425 15.03083745 39178 ISS (ZARYA) 1 25544U 98067A 12332.39188657 .00015817 00000-0 26583-3 0 7221 2 25544 051.6494 030.7882 0015715 335.1636 198.3896 15.51810087803365 CXO 1 25867U 99040B 12332.91310869 -.00000985 00000-0 00000+0 0 8179 2 25867 073.9325 352.8692 8706282 278.1331 000.1253 00.37800597 9775 ____________________________________________________________________ These 2-Line ...Continue Reading

[list_settings.list_name] Current TLEs

November 25th 2012 PDT

HST 1 20580U 90037B 12329.97567177 .00002303 00000-0 15447-3 0 1174 2 20580 028.4697 170.9460 0002761 326.8675 033.1740 15.03078079 38934 ISS (ZARYA) 1 25544U 98067A 12330.38120101 .00016560 00000-0 27855-3 0 7070 2 25544 051.6487 040.7751 0015714 327.8005 125.8331 15.51745746803054 CXO 1 25867U 99040B 12330.26591673 -.00001049 00000-0 00000+0 0 8160 2 25867 073.9221 353.0271 8708178 278.1590 359.7162 00.37802747 9769 ____________________________________________________________________ These 2-Line ...Continue Reading

[list_settings.list_name] Current TLEs

November 24th 2012 PDT

HST 1 20580U 90037B 12328.84688070 .00002562 00000-0 17319-3 0 1161 2 20580 028.4694 178.3403 0002851 311.2793 048.7552 15.03073806 38766 ISS (ZARYA) 1 25544U 98067A 12329.41714506 .00016749 00000-0 28198-3 0 7025 2 25544 051.6486 045.5618 0015563 323.4723 141.1692 15.51713557802908 CXO 1 25867U 99040B 12330.26591673 -.00001049 00000-0 00000+0 0 8160 2 25867 073.9221 353.0271 8708178 278.1590 359.7162 00.37802747 9769 ____________________________________________________________________ These 2-Line ...Continue Reading

[list_settings.list_name] Current TLEs

November 23rd 2012 PDT

HST 1 20580U 90037B 12327.05408888 .00002807 00000-0 19098-3 0 1157 2 20580 028.4695 190.0817 0002958 293.8352 066.1928 15.03065529 38495 ISS (ZARYA) 1 25544U 98067A 12328.46430556 .00017095 00000-0 28797-3 0 6950 2 25544 051.6488 050.2947 0015490 319.5568 218.9042 15.51682406802753 CXO 1 25867U 99040B 12330.26591673 -.00001049 00000-0 00000+0 0 8160 2 25867 073.9221 353.0271 8708178 278.1590 359.7162 00.37802747 9769 ____________________________________________________________________ These 2-Line ...Continue Reading

[list_settings.list_name] Current TLEs

November 22nd 2012 PDT

HST 1 20580U 90037B 12327.05408888 .00002807 00000-0 19098-3 0 1157 2 20580 028.4695 190.0817 0002958 293.8352 066.1928 15.03065529 38495 ISS (ZARYA) 1 25544U 98067A 12327.48572256 .00017366 00000-0 29273-3 0 6888 2 25544 051.6492 055.1542 0015525 315.6617 152.8272 15.51649068802606 CXO 1 25867U 99040B 12327.61953916 -.00000902 00000-0 00000+0 0 8153 2 25867 073.9045 353.1985 8712132 278.1712 359.4816 00.37805115 9751 ____________________________________________________________________ These 2-Line ...Continue Reading

[list_settings.list_name] Current TLEs

November 21st 2012 PDT

HST 1 20580U 90037B 12325.92528872 .00002772 00000-0 18850-3 0 1142 2 20580 028.4695 197.4767 0003142 279.4705 080.5526 15.03059287 38328 ISS (ZARYA) 1 25544U 98067A 12325.98174769 .00021232 00000-0 35657-3 0 6822 2 25544 051.6492 062.6240 0015530 310.4322 031.5483 15.51603353802363 CXO 1 25867U 99040B 12327.62075438 -.00000902 00000-0 00000+0 0 8147 2 25867 073.9046 353.1984 8712120 278.1711 359.6497 00.37805794 9757 ____________________________________________________________________ These 2-Line ...Continue Reading

[list_settings.list_name] Current TLEs

November 20th 2012 PDT

HST 1 20580U 90037B 12324.86288485 .00002796 00000-0 19026-3 0 1138 2 20580 028.4694 204.4338 0003186 268.4450 091.5775 15.03053708 38165 ISS (ZARYA) 1 25544U 98067A 12325.48025259 .00010083 00000-0 17389-3 0 6774 2 25544 051.6497 065.1121 0015593 307.3850 111.5249 15.51569500802290 CXO 1 25867U 99040B 12327.62075438 -.00000902 00000-0 00000+0 0 8147 2 25867 073.9046 353.1984 8712120 278.1711 359.6497 00.37805794 9757 ____________________________________________________________________ These 2-Line ...Continue Reading

[list_settings.list_name] Current TLEs

November 19th 2012 PDT

HST 1 20580U 90037B 12323.13647027 .00003007 00000-0 20556-3 0 1123 2 20580 028.4694 215.7396 0003217 250.4483 109.5758 15.03045007 37901 ISS (ZARYA) 1 25544U 98067A 12324.31793568 .00013215 00000-0 22588-3 0 6700 2 25544 051.6490 070.8834 0015385 302.7421 099.6069 15.51509518802119 CXO 1 25867U 99040B 12324.97448462 -.00000644 00000-0 00000+0 0 8135 2 25867 073.8807 353.3962 8715234 278.1606 359.4922 00.37803877 9741 ____________________________________________________________________ These 2-Line ...Continue Reading

[list_settings.list_name] Current TLEs

November 18th 2012 PDT

HST 1 20580U 90037B 12323.13647027 .00003007 00000-0 20556-3 0 1123 2 20580 028.4694 215.7396 0003217 250.4483 109.5758 15.03045007 37901 ISS (ZARYA) 1 25544U 98067A 12323.42184193 .00015427 00000-0 26248-3 0 6668 2 25544 051.6488 075.3313 0015379 300.2395 133.7740 15.51489965801976 CXO 1 25867U 99040B 12322.32827802 -.00000559 00000-0 00000+0 0 8125 2 25867 073.8601 353.5777 8717147 278.1459 359.3821 00.37801439 9738 ____________________________________________________________________ These 2-Line ...Continue Reading
  • This mailing list is a public mailing list - anyone may join or leave, at any time.
  • This mailing list is announce-only.

International Space Station (ISS) / Hubble Space Telescope (HST) / Chandra X-Ray Observatory Orbital Data via EMAIL

Privacy Policy:

Private list